Location: Newark
(48.8833°N, 0.9236°W)
Time: 00:45:59
(UTC+00:00)

A-11 Canister half - All Passes

Search period start: 13 November 2019 00:00
Search period end: 23 November 2019 00:00
Orbit: 1527 x 1682 km, 47.3° (Epoch: 12 November)

Date Brightness Start Highest point End Pass type
(mag) Time Alt. Az. Time Alt. Az. Time Alt. Az.
13 Nov - 10:46:03 10° SE 10:48:13 11° ESE 10:50:22 10° ESE daylight
13 Nov - 12:42:14 10° SSW 12:51:05 39° SE 12:59:43 10° ENE daylight
13 Nov - 14:45:29 10° WSW 14:55:17 73° SSE 15:04:46 10° E daylight
13 Nov - 16:50:29 10° W 17:00:13 81° S 17:09:38 10° ESE visible
13 Nov - 18:55:36 10° WNW 19:04:45 52° SSW 19:13:39 10° SE visible
13 Nov - 21:01:54 10° W 21:08:01 19° SW 21:14:03 10° S visible
14 Nov - 12:20:43 10° SSW 12:29:30 37° SE 12:38:04 10° ENE daylight
14 Nov - 14:23:50 10° WSW 14:33:39 72° SSE 14:43:09 10° E daylight
14 Nov - 16:28:50 10° W 16:38:35 81° S 16:48:02 10° E daylight
14 Nov - 18:33:57 10° WNW 18:43:09 54° SSW 18:52:07 10° SE visible
14 Nov - 20:40:06 10° W 20:46:29 21° SW 20:52:48 10° S visible
15 Nov - 11:59:13 10° SSW 12:07:56 36° SE 12:16:24 10° ENE daylight
15 Nov - 14:02:12 10° WSW 14:12:02 70° SSE 14:21:32 10° E daylight
15 Nov - 16:07:09 10° W 16:16:57 82° S 16:26:25 10° E daylight
15 Nov - 18:12:17 10° WNW 18:21:34 56° SSW 18:30:35 10° SE visible
15 Nov - 20:18:18 10° W 20:24:57 22° SW 20:31:32 10° S visible
16 Nov - 11:37:45 10° SSW 11:46:21 34° SE 11:54:44 10° ENE daylight
16 Nov - 13:40:34 10° WSW 13:50:24 69° SSE 13:59:55 10° E daylight
16 Nov - 15:45:29 10° W 15:55:19 82° S 16:04:48 10° E daylight
16 Nov - 17:50:38 10° WNW 17:59:58 57° SSW 18:09:03 10° SE visible
16 Nov - 19:56:32 10° W 20:03:25 23° SW 20:10:14 10° S visible
17 Nov - 11:16:16 10° SSW 11:24:46 33° SE 11:33:03 10° E daylight
17 Nov - 13:18:56 10° WSW 13:28:46 68° SSE 13:38:18 10° E daylight
17 Nov - 15:23:48 10° W 15:33:41 82° S 15:43:12 10° E daylight
17 Nov - 17:28:57 10° WNW 17:38:23 59° SSW 17:47:30 10° SE visible
17 Nov - 19:34:47 10° W 19:41:54 24° SW 19:48:54 10° S visible
18 Nov - 10:54:49 10° SSW 11:03:11 32° SE 11:11:23 10° E daylight
18 Nov - 12:57:18 10° WSW 13:07:08 66° SSE 13:16:40 10° E daylight
18 Nov - 15:02:08 10° W 15:12:02 83° S 15:21:35 10° E daylight
18 Nov - 17:07:18 10° WNW 17:16:47 61° SSW 17:25:57 10° SE visible
18 Nov - 19:13:02 10° W 19:20:21 26° SW 19:27:34 10° S visible
19 Nov - 10:33:22 10° SSW 10:41:36 30° SE 10:49:41 10° E daylight
19 Nov - 12:35:41 10° SW 12:45:31 65° SSE 12:55:03 10° ENE daylight
19 Nov - 14:40:28 10° W 14:50:23 83° S 14:59:58 10° E daylight
19 Nov - 16:45:38 10° WNW 16:55:10 62° SSW 17:04:24 10° SE visible
19 Nov - 18:51:17 10° W 18:58:49 27° SW 19:06:12 10° S visible
20 Nov - 10:11:56 10° S 10:20:02 29° SE 10:27:59 10° E daylight
20 Nov - 12:14:03 10° SW 12:23:53 63° SSE 12:33:26 10° ENE daylight
20 Nov - 14:18:47 10° W 14:28:45 83° S 14:38:21 10° E daylight
20 Nov - 16:23:58 10° WNW 16:33:33 64° SSW 16:42:50 10° SE daylight
20 Nov - 18:29:33 10° W 18:37:17 29° SW 18:44:50 10° S visible
21 Nov - 09:50:30 10° S 09:58:28 28° SE 10:06:18 10° E daylight
21 Nov - 11:52:26 10° SW 12:02:15 62° SSE 12:11:48 10° ENE daylight
21 Nov - 13:57:07 10° W 14:07:06 83° S 14:16:43 10° E daylight
21 Nov - 16:02:18 10° WNW 16:11:57 66° SSW 16:21:15 10° SE daylight
21 Nov - 18:07:49 10° W 18:15:44 30° SW 18:23:27 10° SSE visible
22 Nov - 09:29:06 10° S 09:36:54 26° SE 09:44:34 10° E daylight
22 Nov - 11:30:50 10° SW 11:40:38 60° SSE 11:50:10 10° ENE daylight
22 Nov - 13:35:27 10° W 13:45:27 83° S 13:55:06 10° E daylight
22 Nov - 15:40:38 10° W 15:50:20 67° SSW 15:59:41 10° ESE daylight
22 Nov - 17:46:06 10° W 17:54:11 31° SW 18:02:04 10° SSE visible
